Theta_e
351 349 349 347 345 345 344 345 345 345 346 344 344 346 347 346 347 347 347 349 350 347 344 345 344 342 343 346 347 348 348 347 347 347 344 343 342 343 344 343 343 345 346 346 345 344 344 343 344 345 345 345 344 342 343 343 343 344 345 347 345 344 344 346 344 343 343 343 343 343 343 343 343 343 344 344 342 340 341 342 341 341 341 340 339
352 350 350 348 346 344 344 345 346 346 345 344 344 346 349 348 347 346 346 349 349 345 342 341 340 339 341 346 347 347 347 347 347 347 346 346 345 343 344 343 342 343 345 346 346 344 344 344 345 346 345 345 344 343 343 342 342 342 345 346 346 345 345 346 345 343 343 342 342 343 343 343 343 343 342 343 342 341 342 342 341 341 342 341 342
352 351 350 349 346 345 345 345 346 345 345 345 344 345 347 349 348 346 344 347 348 346 341 338 338 337 338 342 345 347 347 347 347 347 346 348 348 344 343 343 342 342 343 345 344 344 344 344 344 345 344 344 342 344 345 344 342 342 344 346 346 345 345 346 346 345 344 343 342 343 343 343 344 343 343 343 343 342 341 341 340 341 342 341 341
352 351 350 349 348 345 345 345 346 346 345 346 345 343 346 348 348 346 343 343 346 346 342 338 337 336 338 340 343 347 347 347 347 347 347 347 349 346 344 344 343 342 343 343 344 344 345 345 344 344 344 343 343 344 345 344 344 343 344 345 345 346 345 344 345 344 344 343 343 343 343 343 343 343 344 344 343 343 342 341 340 341 342 342 341
351 351 351 350 349 346 346 346 346 346 345 346 345 343 344 346 347 346 344 342 343 344 343 340 338 338 340 342 344 347 347 348 347 347 348 348 348 347 344 344 344 343 343 343 344 344 344 345 343 343 343 343 344 344 344 345 344 344 345 345 345 346 346 344 344 343 343 344 344 344 343 343 343 343 343 344 343 343 342 342 341 340 341 341 341
351 352 350 350 349 347 347 347 346 345 345 345 345 344 344 344 345 346 344 342 340 342 342 340 338 337 340 342 344 347 348 348 348 347 348 348 347 346 343 343 344 343 343 343 344 343 344 344 344 344 343 343 345 345 345 344 344 345 345 346 345 344 345 345 345 344 345 344 344 345 344 344 344 343 343 343 342 342 342 341 341 339 340 341 341
351 351 351 349 350 349 348 347 347 346 346 345 345 344 344 343 344 343 343 342 339 339 341 340 338 336 337 337 341 347 348 348 348 347 347 347 347 345 343 343 343 343 344 344 344 343 344 345 343 344 344 345 346 346 345 346 345 346 346 346 345 343 343 345 345 345 344 344 344 345 344 344 344 342 342 342 341 342 341 341 340 339 341 341 341
351 350 351 351 350 350 349 348 347 347 346 345 345 345 344 343 342 343 343 343 340 339 339 339 337 335 334 335 339 345 346 346 347 347 347 347 346 345 342 342 343 342 343 343 343 343 344 345 344 344 345 345 346 348 349 347 346 346 345 345 345 345 345 345 345 344 343 344 345 344 344 344 344 343 342 340 340 342 340 340 341 340 341 341 341
352 351 351 351 350 350 349 349 348 348 347 346 346 345 344 342 342 343 345 343 341 338 338 337 336 334 333 335 337 339 342 345 346 346 346 346 345 344 342 342 342 341 341 341 341 342 343 344 344 344 346 344 344 348 350 349 348 347 345 344 344 346 347 345 343 342 343 344 345 344 343 343 343 343 343 341 340 341 340 341 341 340 341 341 342
352 351 351 351 350 350 349 350 349 349 348 347 347 346 345 343 342 344 345 344 340 338 337 336 336 335 333 334 335 335 338 342 344 346 346 346 346 346 342 341 341 340 339 339 340 341 341 342 342 342 345 345 343 346 349 348 348 347 345 345 344 345 347 347 345 342 343 344 344 344 344 343 342 342 342 342 341 342 341 341 343 342 341 342 341
352 352 351 351 351 350 350 350 350 349 349 348 347 347 346 343 343 343 345 344 340 338 337 335 335 335 334 334 334 333 335 339 341 343 345 346 345 346 344 341 340 339 338 338 340 341 340 340 341 341 343 345 344 347 350 348 347 347 346 345 345 345 345 347 348 345 344 343 343 344 345 342 342 342 342 343 342 342 341 342 343 342 343 341 340
352 352 352 352 351 351 350 350 350 349 350 349 348 348 347 344 342 342 344 345 341 337 336 335 334 334 334 334 335 335 336 338 340 341 342 343 342 344 346 343 339 338 338 338 339 340 340 340 341 341 341 342 344 347 349 348 347 349 348 347 346 345 345 344 346 347 347 345 342 343 344 341 342 342 343 343 343 341 341 343 344 342 342 342 341
352 351 351 352 351 351 351 351 350 350 350 350 349 348 347 345 343 343 344 343 341 337 336 335 334 334 334 333 334 337 337 338 340 340 340 338 339 342 344 343 341 339 337 338 339 340 340 340 340 341 340 340 342 344 347 348 348 349 350 349 346 345 346 345 345 346 347 347 343 342 342 341 341 343 344 344 343 342 340 342 344 343 342 342 342
352 352 351 352 351 351 351 351 351 351 350 350 349 348 347 346 346 345 344 343 341 338 336 335 333 332 333 333 334 337 338 338 338 340 339 336 338 340 339 339 341 340 338 338 338 338 339 340 340 340 340 340 341 343 345 347 347 347 349 349 347 345 345 346 346 346 345 346 347 347 346 344 342 343 345 345 344 344 342 342 343 343 342 342 343
352 352 351 351 352 351 351 351 351 351 350 350 350 349 347 347 348 347 345 343 341 338 337 335 333 330 331 332 333 336 338 338 337 337 337 335 337 338 336 337 340 340 338 337 339 339 339 340 339 340 340 340 341 342 344 346 345 345 346 347 346 345 345 346 345 345 345 345 348 351 349 344 343 344 346 346 344 344 345 344 344 342 342 342 343
352 352 352 352 351 351 351 351 351 351 351 351 350 349 349 348 348 349 347 346 342 340 339 336 334 330 330 331 332 335 337 338 337 336 335 334 334 335 335 336 336 338 339 338 338 338 338 339 339 340 339 338 339 340 343 344 343 343 344 345 344 344 346 346 344 346 347 347 348 351 350 345 345 347 348 348 346 345 346 347 345 344 342 341 342
351 352 352 352 352 351 352 351 351 351 351 351 351 350 350 349 349 349 349 348 346 344 342 340 336 331 329 329 331 333 336 336 335 334 334 333 332 332 332 333 334 335 335 335 335 334 335 336 337 339 339 338 338 339 341 342 342 342 342 341 341 341 342 343 344 345 347 348 348 349 350 348 346 348 349 350 349 347 347 348 347 346 345 342 341
350 351 350 352 352 351 352 351 351 352 351 351 351 351 351 351 350 350 350 350 349 347 346 344 341 334 329 328 329 331 334 334 332 332 333 333 331 330 328 329 330 330 330 329 329 328 330 332 335 337 338 337 337 337 339 340 340 341 341 340 339 339 339 339 341 343 344 347 347 347 348 349 347 349 349 349 350 350 349 349 349 348 344 339 337
350 351 350 351 352 351 351 351 352 352 351 352 352 351 352 351 351 351 351 351 351 350 349 347 344 338 330 328 328 329 331 332 331 330 331 332 331 329 327 327 327 327 328 327 326 326 327 328 330 335 338 339 337 337 337 338 338 339 339 339 339 339 339 337 338 339 341 344 346 347 346 346 347 349 349 349 350 351 350 350 349 346 338 332 332
350 350 351 351 352 351 351 351 351 352 352 352 352 352 352 352 352 352 352 352 351 350 350 349 347 341 334 329 327 327 328 329 330 329 330 330 329 328 327 327 326 326 327 326 326 326 326 326 327 330 334 336 337 337 337 337 338 337 337 337 338 338 338 337 337 338 338 340 344 347 347 345 346 347 348 348 349 350 350 349 347 342 334 329 329
349 350 351 351 352 352 351 351 351 351 352 352 352 352 353 353 352 353 352 352 352 352 351 351 349 345 339 333 329 327 327 327 328 328 328 328 328 328 327 327 327 327 326 326 326 326 325 326 326 327 329 331 332 334 336 337 337 337 337 336 337 337 338 337 337 338 337 337 338 342 345 347 347 346 346 347 347 348 348 346 344 341 336 334 333
349 351 352 352 352 352 351 351 351 351 352 353 353 353 353 353 353 353 353 353 352 353 352 351 350 349 345 339 333 330 327 326 327 327 327 327 327 327 327 327 327 327 327 326 326 326 326 325 326 326 328 329 330 331 332 334 336 337 336 336 336 337 337 337 338 337 338 337 337 338 339 342 344 345 344 346 346 347 346 344 342 341 340 341 342
349 351 352 353 353 352 353 352 351 351 352 353 353 353 353 354 353 353 354 353 354 353 353 352 352 350 348 344 341 336 331 329 327 326 326 326 326 326 326 327 327 326 326 326 326 326 326 326 325 326 327 328 329 330 330 331 332 333 334 335 335 336 336 337 337 337 337 337 338 337 337 338 339 341 342 343 345 345 344 341 340 340 339 342 346
349 350 352 353 352 352 353 352 352 352 351 352 353 353 353 354 354 354 354 354 354 354 354 353 353 351 350 347 345 342 338 333 330 328 326 326 326 325 325 325 326 326 326 326 327 326 326 326 326 325 326 327 328 329 329 330 330 332 333 333 333 334 334 334 335 336 336 337 338 338 337 336 337 338 338 339 340 341 341 340 339 339 339 339 344
350 350 352 353 353 353 353 352 352 351 352 352 352 353 353 354 354 354 355 355 355 354 355 354 354 353 352 349 348 345 343 339 335 331 329 328 327 325 325 324 325 324 325 325 325 325 325 325 325 325 325 325 326 328 327 328 328 330 331 332 332 333 333 333 333 334 335 336 337 337 337 337 337 336 335 335 337 338 339 339 338 338 338 338 340
352 352 352 353 353 354 353 353 353 352 353 352 352 353 354 354 354 355 354 355 355 355 355 355 355 354 353 353 350 348 346 343 339 336 334 332 330 328 327 326 326 325 325 324 324 324 324 324 324 325 325 324 325 326 327 327 327 328 329 330 331 332 333 333 332 333 333 334 335 336 336 336 337 336 335 335 335 336 336 336 336 335 336 337 339
352 352 353 353 353 353 353 353 353 353 352 353 353 354 354 354 354 355 355 355 355 356 355 356 355 355 355 354 353 351 349 346 343 340 338 336 334 332 330 328 328 327 327 325 325 325 324 324 324 324 324 324 325 326 326 326 327 328 329 329 330 331 332 333 332 332 332 332 333 334 334 335 336 335 334 334 334 336 335 335 334 335 334 336 337
351 352 353 354 353 354 353 353 353 352 353 352 353 354 354 354 355 354 356 356 355 356 356 356 357 356 356 355 355 354 352 350 347 345 343 341 338 336 334 332 331 330 329 328 327 326 325 325 325 324 324 324 325 326 326 327 327 328 329 329 330 330 331 332 332 332 331 331 331 332 332 332 333 333 333 333 334 335 336 336 336 336 337 336 336
348 350 352 353 353 354 354 354 354 353 353 353 353 354 354 355 355 355 356 356 356 356 356 357 357 357 357 356 356 355 354 353 352 349 347 345 342 340 338 336 334 332 332 330 330 329 328 327 326 326 325 325 325 326 326 327 328 329 330 331 331 331 331 330 332 332 332 331 330 330 330 330 330 330 330 331 331 332 334 334 334 335 336 336 336
342 343 346 348 351 354 354 355 355 354 354 354 354 355 354 354 354 355 355 355 356 357 357 357 357 357 357 357 357 357 356 356 355 353 352 350 347 345 342 339 337 335 334 333 331 330 329 329 328 327 326 326 326 326 327 327 328 329 330 331 331 332 332 332 332 332 332 331 331 331 330 329 328 329 328 329 329 330 331 332 332 334 335 336 336
338 339 341 344 347 351 354 355 356 356 355 355 355 356 356 355 355 355 356 356 357 358 358 358 358 358 358 358 358 358 357 358 357 357 356 354 352 350 346 344 341 339 338 336 334 333 331 330 329 328 328 327 327 327 327 328 329 330 331 332 332 332 333 333 333 333 332 331 331 331 330 330 329 328 328 328 328 329 330 332 334 336 336 338 339
336 337 339 341 342 346 350 352 354 357 356 356 356 356 356 357 356 356 356 356 357 358 358 359 359 359 359 359 358 359 359 359 359 358 357 355 354 352 351 348 345 343 341 339 338 336 335 333 332 330 330 330 329 329 328 329 330 331 332 333 333 333 333 333 333 332 331 331 331 331 331 330 330 329 328 328 327 329 330 331 337 341 342 342 343
334 336 337 339 340 342 346 349 350 354 357 356 356 355 356 357 357 357 357 357 357 357 358 359 359 359 359 359 360 361 361 360 360 360 358 357 355 354 353 351 349 346 344 343 341 339 338 337 335 333 332 332 331 331 330 331 331 332 334 336 337 337 335 334 333 333 332 331 330 330 330 331 331 330 330 329 328 328 328 330 338 345 345 345 345
332 334 336 338 338 337 342 348 348 349 352 354 353 353 355 356 356 356 357 357 357 357 358 358 359 360 359 360 361 361 361 362 362 361 360 359 358 356 355 353 351 349 347 346 344 342 341 340 338 337 335 334 333 332 331 332 332 334 336 339 340 340 339 337 336 334 333 332 331 330 330 329 330 330 330 331 330 329 329 330 337 345 346 346 346
330 332 334 337 336 332 336 343 345 345 348 350 352 353 354 356 356 356 356 357 357 357 358 358 358 358 358 359 360 360 361 362 362 363 362 361 360 358 356 354 352 350 349 348 347 345 343 342 341 340 339 337 336 334 333 334 334 336 339 341 343 343 343 341 339 336 334 333 332 331 330 330 329 330 330 332 332 332 332 332 336 342 343 343 343
329 331 332 334 336 335 337 340 343 344 346 350 353 353 353 355 357 356 356 356 356 357 356 357 356 357 357 356 357 357 359 361 362 362 363 362 362 361 358 356 354 352 351 349 348 348 347 345 343 342 341 340 338 337 337 337 337 339 342 343 345 346 346 345 342 338 335 333 332 332 331 331 330 330 330 331 333 335 336 336 336 337 337 337 336
328 330 331 331 333 335 337 339 341 343 346 349 353 354 353 353 355 357 358 357 357 357 356 356 357 356 356 356 355 356 358 360 360 361 362 362 362 362 361 359 356 354 352 351 350 350 349 348 346 344 342 341 340 340 340 339 340 342 345 347 348 348 348 347 344 339 335 333 332 332 332 332 331 331 330 331 333 336 338 339 338 338 337 336 332
327 328 329 329 329 331 333 336 339 343 345 347 351 353 354 354 354 356 357 357 357 358 358 358 357 357 357 358 357 357 358 359 360 360 361 362 362 363 362 361 359 357 355 353 352 351 350 349 348 345 343 343 342 342 342 341 342 344 348 350 350 349 349 348 345 341 337 334 331 331 331 333 332 330 330 331 333 337 340 340 339 339 339 337 330
326 328 328 328 327 327 329 331 335 340 344 347 350 351 353 354 355 356 356 356 356 357 358 358 358 358 359 358 358 358 358 358 359 359 359 361 362 363 362 361 360 359 356 354 353 352 351 350 349 347 346 345 344 344 344 344 343 346 350 351 351 351 350 347 344 340 337 334 332 331 331 332 330 329 329 330 332 336 339 339 339 341 340 335 328
326 327 328 328 327 327 327 327 330 335 340 343 347 351 353 355 357 357 357 356 356 355 355 357 357 358 359 359 358 358 358 358 358 358 359 360 361 362 362 362 361 359 357 355 353 352 351 350 349 349 348 348 347 347 346 346 346 347 350 352 352 353 352 350 346 341 337 335 333 331 330 330 329 328 328 329 329 332 336 337 340 343 340 332 328
326 327 328 328 327 326 326 326 328 333 339 343 345 348 352 355 355 356 356 357 357 357 356 356 355 354 356 357 357 358 358 357 357 357 358 359 361 361 362 361 361 360 358 356 354 352 352 351 350 350 350 349 349 348 348 348 348 348 350 352 353 352 352 352 350 345 341 338 335 333 331 330 330 329 329 330 330 332 334 336 339 339 334 330 331
326 327 327 328 328 327 325 326 326 330 337 344 347 346 347 351 352 354 354 355 358 359 359 359 358 355 353 353 354 356 357 357 357 356 357 358 359 361 361 361 361 359 358 357 356 354 352 352 352 352 352 351 351 350 350 349 349 349 349 351 352 352 352 352 352 350 347 342 338 336 334 332 332 333 333 333 335 335 337 338 337 336 334 335 337
326 327 327 328 329 329 328 327 326 328 333 341 347 348 347 346 345 345 347 351 356 359 361 363 362 361 358 355 352 353 353 355 355 356 356 356 356 359 361 361 360 360 359 357 357 355 353 354 353 353 353 352 352 352 352 351 350 350 349 349 350 351 351 352 353 352 349 345 340 337 335 334 334 336 337 338 340 341 342 342 340 338 339 340 343
326 327 328 328 329 331 332 330 328 329 332 337 342 347 349 347 345 346 348 352 355 358 360 362 363 363 362 360 357 354 352 352 353 355 356 355 355 358 361 362 361 360 359 358 358 357 355 354 354 354 354 354 353 353 353 353 351 351 350 349 349 349 350 351 353 353 350 348 344 340 336 335 336 339 340 342 344 345 346 346 345 344 344 345 347
325 327 329 330 330 332 334 334 332 330 332 334 337 342 346 348 348 350 354 356 357 358 359 360 361 362 362 363 361 358 355 352 351 353 355 355 355 357 359 362 361 361 360 359 359 357 357 355 355 355 354 354 354 354 353 353 352 351 351 350 349 348 349 350 351 352 351 349 346 342 339 339 340 343 344 346 347 348 348 348 348 348 347 347 347
324 326 328 330 331 332 334 335 335 334 334 334 335 337 342 346 348 351 353 356 358 359 359 359 360 361 361 362 361 360 358 354 351 352 353 354 355 356 358 360 361 361 361 360 359 359 358 356 355 354 355 354 355 355 354 353 352 352 351 350 350 350 350 350 350 349 349 348 347 345 344 345 345 347 349 349 350 350 351 351 351 349 349 348 349
323 324 326 328 330 332 334 334 335 336 335 335 335 336 339 344 346 348 351 353 355 357 359 360 361 361 361 361 361 360 359 355 352 351 353 355 356 357 358 361 361 361 361 360 360 359 358 358 356 355 355 355 355 355 355 354 353 352 351 350 351 351 351 351 351 350 349 349 349 348 348 349 350 351 352 352 353 353 353 354 353 352 352 352 353
322 323 324 326 328 330 332 333 334 335 336 336 337 337 339 341 343 346 348 350 353 355 358 361 362 362 362 361 360 360 358 355 353 352 353 356 358 359 361 361 361 361 361 361 360 360 359 358 358 356 356 355 355 355 355 354 353 351 349 350 350 350 350 350 351 350 350 351 352 352 352 353 354 354 354 354 355 355 355 355 355 354 355 356 357
321 322 322 324 326 328 330 331 333 334 336 336 337 338 339 340 342 344 346 348 350 353 356 360 363 364 363 360 359 360 358 355 352 353 353 354 357 358 360 361 361 361 361 361 360 360 359 360 359 358 356 356 356 355 353 351 350 349 347 348 348 347 346 347 346 346 351 354 355 355 355 356 355 355 355 356 356 356 357 357 357 356 358 359 359
321 322 322 323 325 327 329 330 332 334 335 336 338 339 340 341 342 343 345 347 349 351 354 358 363 365 365 362 361 362 360 356 353 354 356 357 358 359 359 360 361 362 362 362 361 361 361 361 359 359 358 357 356 354 351 351 353 351 349 348 347 345 345 345 343 346 352 356 357 358 358 357 357 357 356 356 356 356 357 358 357 358 359 360 360
320 321 321 322 324 326 328 329 331 333 334 335 337 339 340 341 342 343 344 346 347 350 352 356 361 364 366 366 366 365 362 356 353 355 357 358 359 361 362 362 362 362 362 362 362 362 362 361 361 360 359 358 358 355 354 354 354 353 352 351 350 349 350 349 349 351 354 356 357 358 358 358 358 358 358 357 358 357 358 358 358 358 359 359 358
Wind_Speed
39 40 35 32 37 38 38 38 35 33 30 29 31 33 33 31 30 31 31 29 28 27 26 27 28 28 29 28 25 20 17 16 12 10 11 11 11 11 11 12 13 13 12 11 10 10 11 11 11 11 10 10 9 8 9 10 10 11 12 14 16 17 15 12 11 11 13 12 9 6 5 7 9 9 7 5 5 3 3 2 1 2 4 5 5
37 39 36 32 36 40 40 40 38 36 34 32 32 35 35 32 30 31 33 32 30 29 28 28 29 28 30 29 25 21 19 17 15 13 12 10 9 10 11 12 13 13 12 11 10 10 11 11 11 11 10 10 9 9 9 9 10 11 12 14 15 16 15 13 13 12 10 9 8 7 7 9 10 10 10 9 7 5 5 4 3 3 4 6 5
38 40 39 33 36 41 42 42 40 37 36 34 34 35 36 34 31 32 34 34 32 30 29 28 28 27 29 29 26 22 20 17 15 13 11 10 9 10 11 12 13 13 12 11 11 11 11 10 11 10 10 9 9 9 9 9 10 11 12 13 14 15 16 14 13 12 10 8 8 8 8 9 9 10 11 10 9 8 6 5 5 4 4 6 7
40 41 41 35 36 42 44 44 42 38 37 37 36 37 38 37 34 32 34 35 33 31 29 28 28 27 27 27 25 23 20 17 16 15 13 11 11 11 11 12 13 13 12 12 11 11 12 11 10 10 10 9 9 8 8 9 9 10 11 12 14 14 16 16 13 13 12 11 9 7 6 7 7 8 9 8 8 9 8 8 7 5 4 5 6
40 42 44 38 37 44 45 44 43 41 40 39 39 39 39 38 36 33 32 35 35 32 30 29 29 28 28 27 26 23 21 20 19 18 16 14 13 13 13 14 14 14 13 13 12 12 12 12 11 10 10 9 9 8 8 9 10 10 10 11 12 13 14 16 15 14 14 13 10 7 5 5 5 6 9 7 7 9 9 10 9 7 5 5 6
41 42 45 42 39 43 45 45 45 44 42 40 39 39 39 38 37 34 32 34 35 33 31 31 31 31 30 30 30 27 24 24 24 22 20 17 15 14 15 15 15 15 15 14 13 12 12 12 11 11 9 10 10 8 8 9 9 9 9 9 9 11 14 16 15 14 14 12 10 7 4 3 3 6 9 7 7 8 8 10 11 8 6 6 7
42 41 43 43 40 43 46 47 47 45 44 41 40 39 39 39 37 35 33 33 35 34 33 33 33 32 31 31 32 30 28 28 26 23 21 18 15 15 16 16 16 16 15 14 13 12 12 11 11 11 9 10 10 9 9 9 9 9 8 8 8 11 13 14 14 13 12 12 11 8 5 4 3 7 9 6 7 8 7 10 10 8 8 8 7
44 43 43 43 42 44 46 47 47 46 45 43 41 40 40 40 38 36 34 32 33 34 34 34 34 32 31 30 32 32 30 28 26 24 21 18 16 15 16 16 16 16 15 14 14 13 12 11 11 11 10 10 10 10 9 8 8 8 8 8 8 9 10 12 13 12 11 12 11 9 7 6 4 6 7 6 7 7 6 8 8 8 9 9 8
46 46 45 44 44 44 45 47 47 46 46 45 43 41 41 41 39 37 35 34 33 34 35 35 34 31 30 31 33 33 30 28 26 24 22 20 17 15 16 17 16 16 15 15 14 14 13 12 11 11 10 10 9 9 9 8 7 6 6 7 8 8 9 10 12 12 13 14 12 10 8 6 5 5 6 7 7 6 7 8 4 5 9 9 9
45 46 47 45 44 45 45 46 47 47 47 46 44 42 42 42 41 39 37 36 34 34 35 35 34 33 31 31 33 33 31 28 27 25 24 22 19 16 17 18 18 17 16 16 16 15 14 13 11 10 9 10 10 10 9 8 6 5 5 6 7 8 9 10 11 12 14 15 13 10 8 8 8 7 7 8 9 7 8 8 2 3 7 7 6
44 45 46 45 44 43 44 45 46 47 47 47 45 43 43 43 43 41 39 38 36 35 35 36 36 34 33 32 32 33 31 29 27 28 27 24 21 19 18 18 19 18 17 17 17 16 14 14 13 11 10 10 11 11 10 7 5 4 4 5 7 8 8 9 11 11 12 13 13 11 10 11 10 8 7 7 9 9 8 7 4 3 5 5 4
45 45 45 45 43 43 45 46 46 47 48 48 47 46 45 44 44 43 41 39 38 37 36 36 37 36 35 33 32 32 31 29 28 28 29 27 24 22 19 18 18 18 18 18 17 16 15 14 14 13 12 11 12 12 10 8 6 4 3 4 6 7 7 8 10 10 11 12 12 11 11 13 12 9 7 6 6 6 7 8 6 4 5 5 5
45 46 46 46 46 45 47 48 47 48 49 50 49 48 47 46 45 45 44 42 40 39 37 38 38 38 37 35 34 32 32 31 28 28 29 29 26 24 22 20 19 19 19 18 17 17 16 15 15 14 13 12 11 11 10 9 9 7 5 5 6 7 7 7 8 9 10 10 10 11 11 13 13 10 7 6 4 3 6 9 8 7 7 6 6
45 46 47 48 49 48 48 49 49 49 50 50 50 50 49 48 47 46 45 44 43 41 39 38 40 39 38 37 36 34 33 32 30 28 29 29 27 26 24 23 21 20 20 19 17 16 16 15 15 14 13 12 12 12 11 10 10 10 9 7 7 9 9 8 8 8 9 10 10 10 10 12 13 11 9 7 6 4 4 7 9 9 10 8 7
44 45 47 49 51 50 49 50 50 50 50 51 51 51 50 50 48 47 46 45 45 44 41 40 40 41 40 38 37 36 35 34 31 30 28 28 29 27 25 24 24 22 20 19 17 16 16 15 15 14 14 13 13 14 13 12 12 11 10 10 9 10 10 9 9 9 10 10 10 10 11 13 14 13 10 8 8 6 4 5 8 9 10 9 9
43 45 47 49 50 50 49 50 51 51 51 51 52 52 52 51 49 47 46 46 46 45 44 42 41 41 41 40 39 39 38 36 33 31 29 28 28 27 25 24 23 22 21 19 17 17 16 16 16 15 15 15 15 15 14 14 13 12 11 11 10 11 11 10 10 10 10 10 10 11 12 14 15 13 10 8 8 8 7 7 8 8 8 9 10
44 46 48 49 50 50 50 50 51 52 52 53 53 53 53 52 51 49 46 46 46 46 46 44 42 42 43 42 41 41 40 39 36 33 31 29 27 26 24 23 22 21 20 19 18 17 17 17 17 17 17 16 15 15 15 14 14 13 12 11 10 10 10 11 11 11 11 11 11 11 12 13 14 13 11 9 8 8 7 8 8 8 9 10 11
44 45 46 48 49 51 51 50 51 52 53 54 54 53 53 52 51 50 48 47 47 47 47 46 44 43 43 44 43 43 43 41 38 35 33 31 30 27 26 24 23 21 20 20 19 18 17 17 18 18 18 17 16 16 15 15 15 15 14 13 11 11 10 11 12 12 12 12 12 12 12 13 13 14 14 11 9 8 7 8 10 11 12 11 12
41 43 43 45 48 50 51 51 51 51 52 53 53 53 52 52 51 50 49 47 46 46 46 47 46 45 44 44 44 44 44 44 41 38 36 35 33 31 29 27 25 23 22 21 20 19 18 18 18 18 19 18 16 16 16 16 16 16 16 15 13 14 13 12 12 13 13 13 13 13 13 13 13 15 16 14 12 11 10 10 12 13 12 11 11
41 43 44 46 49 51 53 53 51 51 51 52 52 52 52 52 52 51 49 47 45 45 46 47 48 47 46 45 45 45 45 45 43 41 39 38 36 34 32 30 27 26 25 23 22 21 20 20 19 19 19 19 18 17 16 16 17 16 17 16 15 16 16 14 13 13 14 14 14 14 14 13 13 16 18 17 16 15 14 14 14 12 10 9 10
43 43 45 47 49 51 52 53 52 51 50 51 51 52 52 52 51 51 50 49 47 46 46 47 48 48 48 47 46 46 45 45 45 43 42 40 39 37 35 33 31 29 28 26 25 24 23 22 21 21 20 20 20 19 18 18 18 17 17 17 17 18 18 16 14 14 15 14 14 15 14 13 13 14 16 17 17 17 16 15 13 11 9 8 9
43 43 45 47 49 50 50 51 50 49 50 50 51 51 51 51 52 51 51 50 49 47 46 46 47 48 49 49 47 46 46 46 46 45 44 42 41 39 38 36 35 33 31 30 28 27 26 25 24 23 22 22 21 21 20 19 19 18 17 17 18 19 19 18 17 16 16 15 15 15 15 14 14 13 14 15 15 15 15 14 12 12 11 9 9
46 44 45 46 48 49 49 49 49 49 50 51 51 51 51 51 52 51 51 51 50 47 46 45 45 47 49 49 49 48 47 47 47 46 45 44 42 41 39 38 37 36 34 33 31 30 29 28 27 25 24 23 23 22 22 22 21 21 20 19 19 19 19 19 19 18 17 17 16 16 16 16 16 15 14 14 14 15 14 14 13 14 14 12 11
45 44 43 44 46 46 47 48 48 49 50 51 51 51 51 51 51 51 52 51 50 48 47 46 45 44 46 48 50 50 49 49 48 48 47 45 44 42 41 40 39 38 37 35 34 32 31 30 30 29 27 26 25 24 23 23 23 23 22 21 20 20 20 19 19 19 18 18 18 17 16 16 16 16 16 16 16 16 16 16 15 15 16 15 14
39 40 39 40 42 44 47 49 50 49 49 51 51 50 50 50 51 51 51 51 50 49 48 48 46 44 44 46 48 50 50 50 50 49 48 47 46 44 43 42 40 40 39 37 36 35 34 33 32 31 30 29 27 26 25 24 24 24 23 23 22 22 22 21 19 19 19 19 19 18 17 16 16 16 16 17 17 17 17 17 17 17 17 16 16
36 39 40 41 43 46 48 50 50 50 48 49 50 50 50 50 50 51 50 50 49 49 48 48 48 47 46 45 47 48 50 51 51 50 49 48 47 47 45 44 42 41 40 39 38 37 36 35 34 33 32 31 30 29 28 26 25 25 25 24 23 23 23 22 21 20 19 19 19 19 18 17 17 17 16 16 17 17 18 18 18 18 17 17 17
19 24 29 33 37 42 46 49 51 51 50 48 49 50 50 50 49 49 49 49 49 48 48 48 47 48 48 47 46 47 48 49 51 50 50 49 48 48 48 47 45 43 42 41 40 39 38 37 35 34 34 33 32 32 31 29 28 28 27 26 25 24 23 23 23 22 21 20 20 20 19 19 20 19 18 17 17 18 18 18 18 17 17 17 19
14 10 7 11 18 25 32 38 44 48 49 49 49 49 49 49 49 48 48 48 48 48 47 47 47 47 48 48 47 46 46 46 47 49 50 50 49 49 49 48 47 46 45 43 42 40 39 38 37 36 35 34 34 34 33 32 31 30 30 28 27 27 25 25 24 23 22 22 21 20 20 21 21 21 20 18 18 18 18 19 18 18 18 18 19
29 28 23 16 8 8 14 21 28 34 40 43 45 47 48 47 47 47 47 46 46 47 46 46 47 47 47 47 46 46 46 45 45 47 48 49 50 49 49 49 49 49 47 45 44 42 41 40 39 38 37 36 36 36 35 34 33 32 31 31 29 28 27 26 25 24 24 23 22 22 22 21 21 21 21 20 19 19 19 20 19 19 19 19 19
32 31 29 27 23 14 7 10 15 20 27 32 36 40 43 46 46 45 45 45 44 45 46 45 46 47 46 46 46 45 45 45 45 46 47 48 49 49 49 49 49 49 49 47 46 45 44 42 41 39 39 38 38 37 36 35 33 32 32 32 31 30 29 28 27 26 25 24 23 22 22 22 22 21 21 21 21 20 20 21 20 20 20 20 20
30 29 28 29 29 23 15 8 9 13 17 21 27 31 34 38 42 43 43 44 43 43 44 45 45 46 45 45 45 45 44 44 44 45 45 46 47 48 49 49 49 49 49 48 47 47 45 44 43 42 41 40 40 39 37 35 34 33 32 32 32 31 31 30 29 28 26 25 24 23 22 22 22 23 23 23 23 22 22 21 19 19 19 19 19
30 28 27 26 26 24 20 14 6 8 12 12 16 24 29 30 33 39 42 42 43 43 43 44 44 44 44 45 45 44 44 44 43 43 43 43 44 47 48 48 49 49 49 49 48 48 47 45 44 43 43 42 41 40 38 36 35 33 33 33 32 32 32 31 30 29 28 26 25 24 23 22 22 22 22 22 23 24 23 21 19 18 18 18 18
28 26 25 24 22 21 20 18 12 7 8 11 10 16 27 31 30 33 38 40 42 43 43 44 43 43 45 46 45 44 44 43 43 42 40 40 41 45 47 48 49 49 49 49 49 48 47 46 45 45 44 43 42 41 39 38 36 34 33 34 34 34 33 32 31 30 29 28 27 26 25 24 23 22 21 21 21 22 23 23 21 20 21 21 21
26 24 23 21 19 16 15 14 13 10 4 6 10 11 20 32 33 31 34 38 41 42 42 43 44 45 47 46 44 44 44 44 43 42 40 39 39 41 44 47 48 48 48 49 49 49 48 47 46 45 44 44 43 42 40 39 38 36 34 34 34 35 34 34 33 31 30 29 28 28 27 26 24 23 23 22 22 21 22 23 23 23 24 24 24
29 26 23 21 18 13 11 10 7 7 14 6 6 9 14 26 32 32 34 37 40 42 43 44 46 47 48 47 46 46 45 45 44 43 42 41 40 39 41 44 47 48 48 49 49 50 49 48 47 45 45 44 43 41 40 40 38 36 34 33 34 35 36 35 34 33 32 31 30 29 29 27 26 26 25 24 24 23 23 23 24 25 26 27 27
29 28 26 23 20 13 8 7 5 7 14 12 4 6 10 17 24 28 32 35 38 41 43 45 47 48 48 47 47 48 48 47 45 45 45 44 43 41 40 41 44 46 47 48 49 50 50 49 47 46 45 44 42 41 40 40 38 36 34 33 33 35 36 36 35 34 33 32 31 31 30 29 29 28 27 25 25 24 24 25 26 26 26 27 27
26 27 26 22 20 16 10 8 9 9 11 10 3 5 6 9 18 24 28 31 34 39 42 44 46 47 47 46 46 47 49 49 47 46 46 45 45 43 41 40 42 45 46 48 49 49 50 49 48 47 45 44 42 40 40 39 38 36 34 33 33 33 34 35 35 34 33 33 32 32 31 31 31 30 28 27 26 26 26 27 28 28 28 29 28
26 27 27 24 21 19 14 9 10 9 10 11 9 9 6 4 11 18 24 28 31 36 40 43 44 45 46 45 45 47 48 49 48 48 47 46 45 44 43 42 42 43 44 46 48 48 49 49 49 48 46 44 42 40 39 38 37 37 36 34 32 32 32 33 33 32 33 33 33 33 32 32 32 31 29 28 27 27 27 28 29 29 30 31 28
25 25 27 27 25 21 17 14 12 9 8 11 10 9 9 5 4 9 16 23 29 33 37 42 44 44 45 46 46 47 48 48 49 49 48 47 46 45 44 43 42 42 43 44 46 47 48 49 49 48 47 45 43 41 39 38 37 37 37 35 33 32 32 31 30 30 31 33 34 34 33 33 33 31 30 30 29 28 28 28 28 28 30 30 26
23 24 24 26 26 24 21 20 18 12 10 11 10 10 12 11 8 8 11 17 24 30 33 37 41 43 45 47 48 49 48 47 48 49 48 46 46 46 45 44 43 43 42 43 45 47 48 48 48 48 47 46 44 42 41 39 38 38 38 36 35 35 34 32 31 29 29 31 32 33 33 33 32 31 30 30 29 29 29 29 28 29 30 27 23
20 22 23 25 26 25 24 23 23 19 13 12 12 13 15 15 13 13 13 14 17 22 25 28 33 38 43 46 49 50 49 47 47 47 46 45 45 45 46 46 45 44 43 43 44 46 47 48 48 48 47 47 46 44 42 40 39 39 39 37 36 36 36 35 34 33 32 31 31 31 30 29 29 28 28 28 28 29 30 30 31 32 30 26 24
17 19 22 25 26 26 27 27 27 23 17 13 13 15 17 19 19 19 17 16 16 18 20 22 26 32 37 41 45 47 48 47 46 45 45 44 44 44 45 46 45 45 44 44 44 46 47 47 47 47 47 48 47 46 44 42 40 40 40 40 39 39 38 37 37 37 36 34 33 31 29 28 27 27 27 27 28 29 31 32 32 32 31 29 28
18 18 20 24 26 27 28 30 30 28 21 15 14 16 18 22 24 23 21 20 20 19 20 21 24 27 32 36 41 43 44 44 45 46 46 45 44 44 45 46 46 45 45 44 45 46 46 47 46 47 48 48 48 47 46 44 42 41 41 42 42 41 40 39 39 39 39 37 35 33 31 29 28 29 29 29 30 31 33 34 33 32 33 33 32
19 17 18 20 23 25 26 28 30 30 25 19 16 18 20 22 24 24 23 22 22 22 23 24 25 27 30 33 37 41 42 42 43 45 46 46 45 44 44 45 46 46 45 45 45 46 47 47 47 47 48 48 48 48 47 46 45 44 43 43 43 43 43 41 41 41 41 40 39 37 34 31 31 31 31 31 31 31 33 34 34 34 36 36 36
19 18 16 16 20 23 24 25 27 29 29 24 19 20 23 24 24 24 23 23 24 25 26 27 28 29 31 32 34 38 41 42 41 42 44 45 45 45 44 45 46 46 46 46 46 46 47 47 47 48 48 49 48 48 48 48 47 46 45 44 43 43 44 44 44 44 43 43 42 40 37 35 34 33 32 32 32 32 31 31 32 33 34 36 36
19 18 17 16 17 20 21 23 24 26 29 28 23 21 24 26 26 25 25 25 26 27 29 29 30 31 32 33 33 35 39 41 42 42 43 43 44 46 46 46 47 47 48 48 47 47 47 48 49 49 50 49 48 48 48 49 48 47 47 45 44 43 43 43 45 46 46 46 45 43 41 39 37 35 34 34 34 32 31 30 30 29 30 30 29
19 18 18 17 18 19 20 22 24 25 28 30 28 23 22 25 27 27 27 27 28 30 31 30 30 31 32 33 33 34 37 41 43 43 43 44 45 46 47 47 48 49 49 49 48 48 48 49 50 50 50 48 47 47 48 49 50 49 48 46 44 43 41 41 42 43 44 44 44 44 42 39 38 37 37 36 36 35 33 32 30 28 27 25 23
19 18 18 18 19 19 20 22 24 26 27 30 32 29 26 25 27 28 29 30 30 31 32 31 30 31 32 33 34 34 36 41 44 44 44 45 46 46 47 48 49 50 50 50 50 50 49 50 50 50 49 47 47 48 49 51 51 50 48 46 44 41 39 39 39 39 39 39 41 42 41 40 39 39 38 38 38 38 36 34 30 26 24 22 21
20 18 17 19 19 19 19 21 23 25 27 28 31 33 30 27 27 29 31 32 33 33 34 32 30 30 31 32 33 33 35 41 45 45 45 46 47 47 47 48 49 49 50 51 51 51 50 49 49 49 49 49 50 51 52 52 52 50 48 46 43 40 38 36 34 33 34 37 39 40 40 40 40 39 40 40 40 40 39 36 32 27 23 22 22
20 19 17 17 18 17 18 19 21 22 24 25 28 30 30 29 29 31 33 35 35 34 34 34 32 30 30 31 32 33 35 40 44 45 45 46 47 47 47 48 48 49 50 51 51 50 47 45 46 48 49 51 52 53 52 51 50 49 48 45 42 40 37 33 31 30 33 37 39 40 40 40 40 40 41 42 42 42 41 38 34 29 25 23 24
21 20 17 17 17 17 17 18 20 21 21 22 24 26 28 29 30 31 33 35 36 35 35 35 33 31 30 29 30 32 36 40 44 45 45 46 47 48 47 48 48 49 50 50 50 48 46 44 45 46 47 49 51 51 50 50 49 49 48 46 43 40 38 34 32 31 34 38 39 40 41 40 40 42 43 43 43 43 42 40 36 31 28 26 24
Wind_Direction
192 192 195 192 189 190 191 190 190 189 191 191 186 185 188 188 190 191 190 190 193 194 189 187 187 183 178 177 182 185 181 183 190 186 182 181 181 184 182 176 176 178 176 174 170 165 161 160 161 163 161 160 163 163 160 164 166 165 165 163 164 167 167 156 141 142 155 161 163 165 169 178 185 191 201 223 244 253 249 257 290 329 0 37 55
191 194 196 193 190 189 190 189 189 189 189 191 188 187 191 193 194 194 191 193 195 196 192 188 189 186 180 180 180 181 182 185 190 185 175 179 184 187 187 182 181 180 178 177 171 165 163 161 163 165 166 165 163 161 162 168 170 167 167 165 166 172 175 167 153 150 160 161 155 155 157 166 178 183 183 193 219 237 238 248 273 301 349 23 37
192 195 195 193 190 188 188 188 189 190 190 191 190 189 192 195 197 196 194 195 197 198 196 192 192 190 184 184 181 179 188 191 193 192 184 187 191 192 193 188 186 182 177 177 172 166 167 166 164 163 164 164 160 159 157 159 164 164 166 168 171 178 181 179 170 166 175 170 153 153 157 165 183 190 183 181 191 212 236 252 263 284 331 10 31
192 195 195 194 190 187 187 187 189 190 190 190 190 191 193 196 199 199 197 199 199 199 199 195 193 192 186 186 181 179 190 195 195 200 197 198 201 198 199 194 189 182 175 174 170 168 171 171 168 162 161 160 156 157 158 156 159 162 166 169 175 181 185 186 181 175 180 179 167 162 161 176 198 198 194 194 193 202 227 250 261 275 297 337 11
192 194 196 195 190 188 187 188 189 190 191 191 192 194 196 197 200 201 200 201 202 201 199 195 193 192 186 185 182 181 190 194 196 198 196 202 206 201 200 196 190 183 175 172 169 169 170 170 168 163 160 158 154 155 160 160 160 162 166 172 178 183 183 181 176 173 178 181 178 174 176 197 214 202 197 209 211 208 224 247 259 266 275 306 336
192 193 195 195 191 189 189 189 190 190 192 193 195 197 198 198 200 203 202 202 204 203 199 195 195 194 190 187 183 184 189 194 199 200 196 200 205 202 199 195 191 185 179 175 171 170 171 170 167 165 161 154 151 154 158 160 161 162 164 171 180 180 177 177 178 178 181 182 180 181 190 197 207 204 199 206 214 215 234 243 246 256 260 284 314
192 192 194 195 193 190 189 191 191 192 193 195 197 199 200 199 201 203 203 203 205 204 200 197 197 198 197 191 186 186 189 194 201 203 200 202 202 202 199 195 193 189 183 181 176 172 174 175 169 168 166 157 152 154 157 159 161 158 157 160 167 174 178 183 187 187 184 180 176 174 175 166 176 198 201 206 206 217 242 232 230 248 256 269 295
191 192 193 195 194 192 191 191 193 193 193 194 197 200 201 201 202 204 205 205 205 205 203 200 200 201 200 195 190 191 191 194 200 201 202 203 197 198 199 197 197 193 188 186 184 179 177 181 178 173 170 161 155 156 155 156 157 155 157 160 165 173 180 186 191 192 183 177 175 172 169 164 165 187 199 212 209 215 223 209 223 252 254 263 277
191 192 193 194 194 195 195 194 194 194 193 195 198 201 202 202 203 205 206 207 206 206 205 203 203 203 201 197 195 196 195 196 200 201 202 203 198 198 200 200 200 197 196 194 191 189 183 184 188 181 172 167 162 161 159 155 153 155 162 167 172 176 176 177 183 188 181 178 180 181 180 173 162 172 190 205 207 202 191 188 218 251 237 246 252
193 193 195 195 195 195 196 195 195 195 195 196 199 202 202 202 203 205 207 208 207 206 207 205 204 204 202 199 197 198 197 197 202 205 204 203 202 201 200 201 202 200 201 200 196 194 188 187 195 192 180 174 167 164 166 159 149 155 173 176 172 173 177 174 176 181 179 182 188 190 193 186 171 170 182 194 198 190 185 188 198 224 218 229 238
195 194 195 196 196 196 196 195 195 196 196 195 198 201 203 203 204 206 208 209 209 208 207 207 205 204 204 203 200 199 197 196 202 206 205 205 204 201 198 200 204 203 202 201 197 194 192 191 197 200 193 182 171 166 169 165 152 151 175 185 175 171 179 179 181 185 183 188 195 196 197 192 180 175 176 180 188 195 199 195 196 226 225 227 246
196 195 195 194 195 195 196 196 196 196 196 196 198 201 203 204 206 207 208 209 211 210 209 207 206 204 204 206 205 202 199 197 199 203 205 207 205 201 199 201 204 206 205 202 197 194 195 195 198 203 202 192 182 177 176 176 176 170 176 194 189 182 184 183 186 190 185 184 191 198 197 194 191 183 171 169 177 201 212 204 205 227 217 212 240
196 195 194 193 193 194 194 195 195 195 196 197 198 200 202 205 207 208 209 211 212 213 211 208 207 205 204 206 207 205 203 201 201 202 204 208 207 201 200 199 198 204 207 203 199 197 197 198 200 203 204 199 194 191 187 186 190 191 193 204 204 201 197 190 191 193 187 178 181 192 194 192 195 188 176 178 178 196 216 214 219 226 218 221 241
197 196 195 194 194 194 194 194 195 196 197 198 198 200 202 204 207 209 211 212 213 214 213 210 208 207 205 206 207 207 206 206 206 205 205 207 207 205 204 199 196 204 208 203 201 202 201 202 203 206 206 204 202 202 199 198 200 200 199 203 205 205 201 193 191 194 191 184 179 182 184 185 188 185 181 190 191 186 209 219 221 225 229 236 245
199 198 197 197 196 195 195 195 196 197 197 198 199 200 202 204 207 209 211 212 214 215 215 213 210 208 207 207 207 208 209 209 209 210 209 206 206 208 208 203 200 204 208 206 203 204 205 206 207 209 210 209 207 206 206 208 210 207 203 204 205 203 201 197 193 194 194 192 187 182 178 176 177 182 192 205 208 205 212 227 226 229 237 240 243
200 201 199 198 197 196 195 195 197 198 198 199 200 201 202 204 207 209 212 214 215 216 217 215 211 209 208 208 208 209 210 212 212 212 213 209 208 210 210 208 206 204 206 208 208 208 208 210 211 212 213 214 211 206 206 211 216 217 212 210 208 203 203 203 197 197 200 197 195 190 183 177 177 188 207 221 227 222 216 226 233 237 247 253 252
201 202 201 200 198 197 196 196 197 198 199 200 201 202 204 205 207 209 211 214 216 217 219 218 214 211 209 209 210 210 211 214 215 214 214 212 212 213 214 215 212 208 206 207 210 213 212 212 214 216 217 215 212 209 207 209 216 222 222 220 217 212 210 209 205 204 204 203 203 199 194 190 189 199 217 226 230 225 213 220 238 253 262 267 263
201 203 202 201 200 199 198 197 198 199 200 201 203 204 205 207 208 209 211 213 216 218 219 220 217 213 211 210 211 211 212 216 218 217 216 214 215 217 218 219 218 215 212 211 214 216 215 215 214 215 219 219 215 213 212 211 214 221 227 228 227 226 220 215 215 213 209 207 209 206 203 202 203 211 220 223 225 225 221 230 248 260 263 262 256
200 202 203 202 201 201 200 200 200 200 201 202 203 204 206 207 209 210 213 215 216 218 219 221 220 216 212 211 212 213 214 216 219 220 218 217 218 219 220 222 221 220 219 217 217 218 218 219 217 213 215 219 220 219 218 218 216 219 226 229 229 230 228 221 218 217 215 213 213 211 208 205 207 212 216 219 225 228 233 244 252 258 259 254 244
199 200 202 203 202 202 202 202 201 201 202 203 204 205 206 208 209 210 213 215 216 218 220 221 221 219 215 213 213 214 215 217 219 220 220 220 221 221 221 222 222 222 222 221 221 222 222 224 224 219 216 218 221 222 221 223 222 222 225 227 227 229 231 228 222 219 217 216 216 215 215 212 210 210 212 218 225 229 235 241 244 249 250 245 238
199 198 200 203 203 203 203 203 203 202 203 203 204 206 207 208 209 210 211 213 214 217 219 220 221 221 219 216 214 215 216 217 219 221 222 222 223 223 223 224 224 223 223 223 223 225 227 228 229 227 224 223 222 222 223 224 226 226 224 225 227 229 231 231 228 223 219 219 220 219 220 220 217 216 216 219 223 226 230 232 234 239 241 238 238
197 198 200 201 202 203 203 203 203 202 203 204 205 206 207 208 210 211 211 212 214 217 218 220 221 222 222 220 217 216 217 218 220 222 223 224 224 224 225 225 226 226 225 225 225 226 230 232 232 231 231 230 228 226 224 224 228 230 228 226 227 228 231 231 231 229 224 222 223 223 223 222 222 223 222 223 225 227 228 229 231 238 238 238 247
197 197 199 201 202 202 202 202 202 203 203 204 205 206 207 209 210 211 211 213 215 217 218 220 221 222 224 223 221 219 218 219 220 222 224 225 226 226 226 227 227 228 228 227 227 228 230 232 234 233 233 233 233 231 228 227 228 231 233 232 230 230 231 230 231 233 231 228 227 227 228 226 225 226 226 226 230 233 237 238 238 241 240 239 248
196 196 198 200 201 201 201 201 201 203 204 205 206 207 208 209 210 211 212 214 215 216 217 219 221 223 224 224 224 223 221 220 221 223 224 225 227 228 228 229 230 230 230 230 230 230 231 233 235 235 235 234 234 234 233 231 229 231 233 235 235 236 235 233 233 234 234 233 230 229 230 229 228 228 228 228 230 234 240 244 245 247 248 246 247
193 195 197 198 199 200 200 201 201 202 204 206 206 207 208 209 211 212 213 214 215 216 216 218 220 222 223 224 226 225 224 223 223 224 225 226 227 229 230 231 231 232 233 233 233 233 233 234 235 237 237 237 236 236 236 235 233 233 234 234 236 237 238 238 237 236 236 235 234 233 232 232 232 232 230 228 231 235 239 244 249 250 253 255 254
196 197 198 199 200 201 202 201 201 201 203 205 207 208 208 210 211 213 214 214 215 216 216 217 219 220 222 224 225 226 226 226 226 226 226 227 228 229 230 232 232 233 234 235 235 235 235 235 236 237 238 239 240 240 240 240 240 239 238 236 235 235 237 239 239 237 237 236 237 238 236 236 238 239 237 234 234 238 241 244 248 251 254 257 258
196 199 202 203 203 204 204 203 202 202 203 205 207 207 208 209 211 212 214 215 215 215 216 217 218 220 222 224 225 226 228 229 229 229 229 229 229 230 231 232 233 234 235 236 236 236 236 237 237 237 238 239 241 243 244 245 246 246 245 241 238 235 234 236 238 238 237 237 238 240 240 239 241 243 245 243 241 243 246 247 248 251 254 256 257
74 82 138 186 202 208 209 208 207 206 206 207 208 208 209 210 210 212 214 215 215 215 215 217 218 219 222 225 227 228 229 230 231 232 232 231 231 231 232 233 234 235 235 236 237 238 238 238 238 239 239 239 241 243 245 246 247 248 248 246 243 240 236 235 236 237 238 238 239 240 241 241 241 244 246 247 247 246 248 251 252 253 255 256 258
57 55 62 76 102 180 207 213 214 213 211 210 210 210 210 210 210 211 213 215 215 215 215 217 218 220 224 226 227 228 229 231 232 233 233 233 233 233 234 234 235 235 236 237 238 238 239 239 239 239 240 240 240 242 244 246 247 248 248 249 247 245 242 240 238 238 239 240 240 241 242 242 242 244 246 248 249 248 249 253 254 256 257 258 260
49 47 49 54 62 81 134 188 205 214 217 216 215 213 211 211 211 211 212 214 215 215 216 217 219 221 225 226 227 229 230 231 232 233 235 235 234 234 234 235 235 236 237 237 237 238 239 240 240 240 240 240 241 242 244 246 247 248 248 249 250 249 247 246 243 242 241 242 243 242 241 241 241 242 244 245 247 248 250 253 256 257 258 259 262
41 40 42 44 51 63 80 115 176 199 208 215 218 217 213 212 212 211 211 213 214 215 216 218 220 222 224 226 228 229 231 232 233 234 235 236 236 234 234 234 235 236 237 238 237 237 238 239 240 240 240 240 241 243 245 245 246 247 247 248 250 250 250 249 248 247 246 245 245 246 245 243 242 241 242 243 245 246 248 251 255 256 255 255 258
32 32 36 39 43 50 59 68 104 179 191 199 213 217 215 214 214 213 213 213 214 215 216 218 220 222 224 226 228 230 231 233 234 235 235 236 236 235 234 233 234 236 237 238 238 238 238 239 240 241 241 241 242 243 245 246 246 246 246 246 248 249 250 251 251 250 250 249 248 249 249 248 246 245 245 245 246 245 245 247 249 253 256 257 257
26 23 25 30 34 40 50 62 80 125 182 196 212 221 216 214 216 216 215 214 214 216 217 217 219 221 225 228 229 230 231 232 234 235 235 237 237 236 234 233 233 235 236 237 238 238 238 238 239 240 241 242 243 244 245 246 247 246 246 246 246 248 249 250 251 251 252 251 251 251 252 252 252 250 250 251 250 247 245 244 246 249 254 257 258
23 21 22 25 29 35 42 61 88 87 81 197 222 246 227 218 218 218 217 218 217 217 218 219 220 223 228 230 230 231 233 234 235 235 235 236 238 238 236 234 233 234 235 236 238 238 239 239 239 240 242 243 244 244 244 245 246 247 247 247 247 248 249 250 251 251 252 252 252 252 253 254 254 254 255 255 254 251 248 246 245 248 252 255 257
13 16 20 23 28 36 37 47 78 50 27 45 201 246 244 225 222 221 221 222 222 222 222 223 225 228 231 232 233 235 235 234 234 235 235 237 239 240 238 235 233 233 234 236 237 238 239 240 239 239 241 242 244 244 245 245 245 246 247 247 247 247 248 250 250 250 251 251 252 252 253 254 255 256 256 257 257 256 254 252 250 251 253 255 256
6 8 11 14 19 26 23 13 357 343 8 32 124 225 250 230 221 220 220 221 225 227 228 229 230 233 234 235 236 237 237 235 233 233 234 237 239 241 240 237 235 234 235 236 237 238 239 240 240 239 240 242 244 245 245 245 245 245 245 246 247 247 248 249 249 249 248 249 250 251 252 252 253 254 255 256 257 258 258 257 256 255 255 256 256
2 2 4 5 6 10 7 343 327 330 352 5 344 273 271 227 214 219 220 220 223 227 232 235 236 237 237 238 238 238 237 236 234 232 234 236 238 240 240 239 236 235 234 235 236 238 239 239 240 239 239 241 242 244 245 245 245 244 244 244 245 245 246 248 248 247 246 246 247 248 249 251 252 253 253 254 256 257 258 258 258 258 258 258 256
357 355 354 354 356 1 2 341 318 321 340 340 315 284 276 215 208 224 228 227 226 226 230 236 238 240 240 240 240 239 238 236 235 234 235 236 237 239 240 239 238 237 236 236 236 238 239 239 239 240 240 241 242 244 244 245 245 244 243 242 243 244 245 246 246 245 243 243 244 245 247 249 250 251 251 253 254 254 255 255 255 256 256 256 256
349 350 348 346 345 346 345 337 324 305 307 324 313 274 266 273 248 243 244 243 238 233 233 237 240 242 243 243 243 242 239 238 237 237 237 237 237 238 239 240 240 240 239 238 236 237 238 239 239 240 241 242 243 244 245 245 244 243 242 242 242 242 243 244 245 244 244 243 243 243 244 246 248 250 251 253 253 251 250 250 251 253 254 256 258
341 346 346 341 337 335 332 331 331 319 295 300 299 267 261 274 281 278 277 267 255 248 247 247 246 244 244 244 244 243 241 241 241 240 239 238 237 237 237 239 240 240 240 238 236 236 237 238 239 239 240 242 243 244 245 245 245 244 242 241 240 241 242 243 245 246 245 245 244 244 245 246 248 251 252 254 254 252 251 252 252 252 255 259 264
339 340 342 337 330 327 324 322 326 327 311 294 287 268 259 264 267 271 282 285 274 266 264 261 256 251 247 246 245 244 244 245 245 242 239 239 238 237 237 238 239 238 238 237 235 235 235 237 238 239 239 241 242 244 245 246 246 245 243 242 240 241 243 245 247 249 249 248 247 247 248 249 251 253 254 256 257 256 256 256 256 257 261 266 271
341 336 335 334 330 324 319 314 317 322 319 304 287 271 262 262 263 265 274 284 284 276 272 270 267 260 254 251 249 247 247 248 247 243 240 239 239 238 238 238 237 237 237 236 235 234 234 235 238 239 240 241 242 244 245 246 246 245 244 243 241 243 245 247 248 250 251 252 253 253 255 256 257 258 259 260 261 261 260 260 259 262 265 268 270
346 337 329 328 328 326 318 312 311 315 317 309 291 277 267 262 260 262 269 276 279 277 273 271 269 265 261 258 254 251 249 248 246 243 240 240 240 239 237 237 236 236 235 235 234 233 233 234 236 238 240 241 242 243 244 246 246 245 245 244 243 244 246 247 248 250 253 256 258 260 261 262 262 263 263 263 264 264 263 263 263 265 266 267 267
349 345 334 324 323 324 321 312 307 308 311 307 293 283 275 266 263 266 271 274 276 276 274 271 268 266 264 262 259 255 253 250 247 242 239 238 239 238 237 236 236 235 235 234 234 233 232 232 234 237 239 241 242 242 243 245 245 245 245 246 245 246 246 247 248 251 255 258 260 263 265 266 266 266 266 266 265 264 263 263 264 264 265 265 265
345 348 344 330 320 321 322 316 307 303 304 303 294 285 280 275 272 274 277 280 281 279 274 270 267 265 264 263 262 259 256 253 250 244 240 237 236 235 235 235 235 234 234 233 233 232 231 231 233 235 237 239 241 241 242 244 245 245 245 246 246 246 246 247 248 251 254 258 261 264 267 268 268 268 268 267 265 263 262 261 260 260 260 260 261
341 348 350 343 329 321 321 320 312 304 302 302 298 287 279 278 278 278 280 283 285 283 277 272 268 266 264 263 263 260 256 254 251 247 243 240 237 234 233 233 232 233 233 234 233 232 232 232 233 235 236 238 239 240 241 243 244 245 245 246 246 246 246 247 249 252 255 257 260 263 266 267 268 267 267 267 266 264 263 262 261 257 254 252 252
337 346 350 350 341 329 324 323 319 312 305 303 301 294 282 276 277 281 283 284 284 283 280 276 272 270 267 264 263 259 254 250 247 245 242 238 235 233 232 230 229 230 231 232 232 232 232 232 233 235 235 236 237 238 239 242 244 245 245 245 245 246 246 246 247 250 252 254 257 260 262 263 264 264 265 265 266 265 265 264 262 256 250 247 247
333 343 348 351 347 338 331 330 326 319 311 306 304 300 292 280 276 279 282 282 280 280 279 278 277 274 269 265 263 260 253 246 243 241 238 235 232 230 229 229 230 231 230 230 232 232 232 233 234 234 234 234 235 237 238 240 243 245 245 244 243 244 243 242 242 244 246 249 251 254 256 258 259 261 262 262 263 264 264 265 263 257 249 245 246
328 338 348 352 352 345 341 339 333 324 315 309 305 302 297 289 281 279 281 281 280 279 278 278 279 279 272 264 261 260 252 244 239 237 236 235 234 233 232 232 233 235 235 236 236 236 236 237 236 234 233 233 234 237 240 242 243 246 247 246 245 244 242 240 241 242 244 246 249 251 252 254 255 257 258 259 260 262 263 264 263 259 251 247 246
323 333 345 353 355 352 349 347 342 333 322 313 307 303 299 293 285 281 282 283 282 281 280 279 280 282 276 266 259 257 251 242 237 234 231 230 231 233 234 235 236 237 238 238 239 240 242 243 241 239 237 237 238 242 244 244 244 246 249 250 250 249 247 246 247 246 244 246 249 250 251 252 253 254 256 257 258 260 262 261 261 259 254 248 245
318 328 341 353 356 355 353 351 349 344 334 322 313 307 301 295 288 284 282 283 284 283 281 279 279 283 282 272 262 257 251 243 237 232 229 228 228 229 231 234 235 236 236 236 237 239 242 244 245 244 243 242 243 244 245 244 245 247 250 252 253 252 251 251 251 249 248 248 249 250 251 251 252 253 255 256 257 259 260 260 260 258 252 248 247